Alderney, United Kingdom

10:08 AM BST on May 27, 2017 (GMT +0100)
Alderney

Weather History for EGJA - March, 2013

Change the Weather History Date:

Sunday, March 17, 2013

  Actual Average Record
Temperature  
Mean Temperature 40 °F -  
Max Temperature 42 °F 50 °F 51 °F (2003)
Min Temperature 39 °F 43 °F 37 °F (2006)
Degree Days  
Heating Degree Days 24    
Moisture  
Dew Point 38 °F    
Average Humidity 87    
Maximum Humidity 100    
Minimum Humidity 76    
Precipitation  
Precipitation 0.00 in - - ()
Sea Level Pressure  
Sea Level Pressure 29.21 in    
Wind  
Wind Speed 16 mph ()    
Max Wind Speed 25 mph    
Max Gust Speed 38 mph    
Visibility 5.9 miles    
Events Rain    
Averages and records for this station are not official NWS values.
T = Trace of Precipitation, MM = Missing Value Source: Averaged Metar Reports

Daily Weather History Graph

Daily Weather History Graph

Search for Another Location

Airport or City:

Trip Planner

Search our weather history database for the weather conditions in past years. The results will help you decide how hot, cold, wet, or windy it might be!

Date:

Astronomy

Mar. 17, 2013 Rise Set
Actual Time 6:17 AM GMT 6:17 PM GMT
Civil Twilight 5:45 AM GMT 6:49 PM GMT
Nautical Twilight 5:08 AM GMT 7:26 PM GMT
Astronomical Twilight 4:29 AM GMT 8:05 PM GMT
Moon 8:49 AM GMT (3/17) No Moon Set
Length of Visible Light 13h 03m
Length of Day
11h 59m
Waxing Crescent, 30% of the Moon is Illuminated
Mar 17
Waxing Crescent
Mar 19
First Quarter
Mar 27
Full
Apr 3
Last Quarter
Apr 10
New

Hourly Weather History & Observations

Time (GMT) Temp. Windchill Dew Point Humidity Pressure Visibility Wind Dir Wind Speed Gust Speed Precip Events Conditions
8:20 AM 42.8 °F 33.1 °F 39.2 °F 87% 29.21 in 6.2 mi South 25.3 mph 38.0 mph N/A Rain Light Rain Showers
8:50 AM 42.8 °F 33.8 °F 39.2 °F 87% 29.21 in 6.2 mi SSW 21.9 mph - N/A Rain Light Rain Showers
9:20 AM 42.8 °F 34.0 °F 37.4 °F 81% 29.21 in 6.2 mi South 20.7 mph - N/A   Mostly Cloudy
9:50 AM 42.8 °F 33.3 °F 39.2 °F 87% 29.18 in 6.2 mi South 24.2 mph - N/A Rain Rain Showers
10:20 AM 42.8 °F 33.8 °F 41.0 °F 93% 29.18 in 3.7 mi South 21.9 mph 33.4 mph N/A Rain Rain Showers
10:50 AM 41.0 °F 33.9 °F 41.0 °F 100% 29.18 in 2.5 mi SSW 12.7 mph - N/A Rain Rain Showers
11:20 AM 41.0 °F 36.4 °F 41.0 °F 100% 29.18 in 6.2 mi SSW 6.9 mph - N/A Rain Rain Showers
11:50 AM 42.8 °F 36.2 °F 42.8 °F 100% 29.18 in 6.2 mi WNW 12.7 mph - N/A   Mostly Cloudy
12:20 PM 41.0 °F 32.2 °F 41.0 °F 100% 29.18 in 6.2 mi NW 18.4 mph - N/A   Mostly Cloudy
12:50 PM 39.2 °F 28.3 °F 39.2 °F 100% 29.18 in 6.2 mi NW 25.3 mph - N/A Rain Rain Showers
1:20 PM 39.2 °F 28.7 °F 39.2 °F 100% 29.18 in 6.2 mi NW 23.0 mph - N/A Rain Light Rain Showers
1:50 PM 41.0 °F 31.1 °F 37.4 °F 87% 29.21 in 6.2 mi NW 23.0 mph - N/A   Scattered Clouds
2:20 PM 42.8 °F 34.3 °F 37.4 °F 81% 29.21 in 6.2 mi NW 19.6 mph - N/A   Scattered Clouds
2:50 PM 41.0 °F 32.5 °F 35.6 °F 81% 29.24 in 6.2 mi WNW 17.3 mph - N/A   Mostly Cloudy
3:20 PM 41.0 °F 33.5 °F 37.4 °F 87% 29.24 in 6.2 mi West 13.8 mph - N/A   Partly Cloudy
3:50 PM 42.8 °F 37.0 °F 37.4 °F 81% 29.24 in 6.2 mi WSW 10.4 mph - N/A   Partly Cloudy
4:20 PM 42.8 °F 35.8 °F 37.4 °F 81% 29.24 in 6.2 mi West 13.8 mph - N/A   Partly Cloudy
4:50 PM 42.8 °F 35.1 °F 35.6 °F 76% 29.24 in 6.2 mi West 16.1 mph - N/A   Partly Cloudy
5:20 PM 42.8 °F 36.6 °F 35.6 °F 76% 29.24 in 6.2 mi WSW 11.5 mph - N/A   Partly Cloudy
5:50 PM 42.8 °F 37.0 °F 35.6 °F 76% 29.27 in 6.2 mi WSW 10.4 mph - N/A   Partly Cloudy
6:20 PM 41.0 °F 33.9 °F 33.8 °F 76% 29.24 in 6.2 mi WSW 12.7 mph - N/A   Partly Cloudy